Location: Observatoire
(46.1952°N, 5.3391°E)
Time: 06:16:55
(UTC+01:00)

Tiros 1 despin weight - Pass Details

Date: 20 February 2026
Orbit: 556 x 593 km, 48.2° (Epoch: 13 March)

Event Time Altitude Azimuth Distance (km) Brightness Sun altitude
Rises 21:34:00 0° 278° (W) 2,732 ? -35.1°
Enters shadow 21:37:01 - 253° (WSW) 1,938 ? -35.6°
Reaches altitude 10° 21:37:39 10° 245° (WSW) 1,836 - -35.7°
Maximum altitude 21:39:06 12° 225° (SW) 1,736 - -35.9°
Drops below altitude 10° 21:40:32 10° 205° (SSW) 1,837 - -36.1°
Sets 21:44:12 0° 172° (S) 2,735 - -36.7°
